This is the latest recevied weather packets stored in our database for station/object N8QF. If no packets are shown the sender has not sent any weather packets the latest 10 day(s).
| Time | Temp. | Humidity | Pressure | Rain* | Wind** | Luminosity | Snow |
|---|---|---|---|---|---|---|---|
| 1777567502 | 12.22° C | 59% | 1015.9 hPa | 0 mm | - | - | - |
| 1777567202 | 12.22° C | 58% | 1015.9 hPa | 0 mm | - | - | - |
| 1777566901 | 12.78° C | 60% | 1015.9 hPa | 0 mm | - | - | - |
| 1777566601 | 12.22° C | 60% | 1016 hPa | 0 mm | - | - | - |
| 1777566000 | 12.22° C | 64% | 1015.9 hPa | 0 mm | - | - | - |
| 1777565700 | 12.22° C | 57% | 1015.9 hPa | 0 mm | - | - | - |
| 1777565400 | 12.22° C | 59% | 1016 hPa | 0 mm | - | - | - |
| 1777565100 | 11.67° C | 61% | 1016 hPa | 0 mm | - | - | - |
| 1777564800 | 11.11° C | 62% | 1016 hPa | 0 mm | - | - | - |
| 1777564499 | 11.11° C | 62% | 1016 hPa | 0 mm | - | - | - |
| 1777564199 | 11.11° C | 60% | 1016 hPa | 0 mm | - | - | - |
| 1777563899 | 11.67° C | 66% | 1016 hPa | 0 mm | - | - | - |
| 1777563298 | 11.67° C | 65% | 1016.2 hPa | 0 mm | - | - | - |
| 1777562998 | 11.11° C | 63% | 1016.1 hPa | 0 mm | - | - | - |
| 1777562698 | 10.56° C | 65% | 1016.1 hPa | 0 mm | - | - | - |
| 1777562398 | 11.11° C | 68% | 1016.1 hPa | 0 mm | - | - | - |
| 1777562097 | 10.56° C | 69% | 1016.1 hPa | 0 mm | - | - | - |
| 1777561797 | 10° C | 72% | 1016.1 hPa | 0 mm | - | - | - |
| 1777561497 | 10° C | 69% | 1016 hPa | 0 mm | - | - | - |
| 1777561197 | 10° C | 73% | 1016 hPa | 0 mm | - | - | - |
| 1777560896 | 9.44° C | 73% | 1016.1 hPa | 0 mm | - | - | - |
| 1777560595 | 9.44° C | 74% | 1016.1 hPa | 0 mm | - | - | - |
| 1777560295 | 9.44° C | 75% | 1016 hPa | 0 mm | - | - | - |
| 1777559995 | 8.89° C | 76% | 1016 hPa | 0 mm | - | - | - |
| 1777559394 | 8.33° C | 74% | 1016.1 hPa | 0 mm | - | - | - |
* Rain since midnight (hover to see other rain measurements)
** Current wind speed in m/s (hover to see current wind gust speed)